Regional Weather Roundup
Issued by NWS

Home | Current Version | Previous Version | Graphics & Text | Print | Product List | Glossary On
Versions: 1 2 3 4 5 6 7 8 9 10 11 12 13 14 15 16 17 18 19 20 21 22 23 24 25 26 27 28 29 30 31 32 33 34 35 36 37 38 39 40 41 42 43 44 45 46 47 48 49 50
000
ASUS43 KDMX 271207
RWRIA

WEATHER ROUNDUP FOR IOWA
NATIONAL WEATHER SERVICE DES MOINES IA
700 AM CDT SUN JUL 27 2014

NOTE: "FAIR" INDICATES FEW OR NO CLOUDS BELOW 12,000 FEET WITH NO
SIGNIFICANT WEATHER AND/OR OBSTRUCTIONS TO VISIBILITY.

* - THESE STATIONS ARE NOT NWS STATIONS...THUS NOT UNDER NWS
QUALITY CONTROL.  THEY ALSO DO NOT REPORT WEATHER SUCH
AS PRECIPITATION OR FOG.

IAZ001>003-012>014-020>022-031>034-043>046-271300-
   NORTHWEST IOWA

CITY           SKY/WX    TMP DP  RH WIND       PRES   REMARKS
CARROLL *      CLEAR     63  59  88 W8        29.97R
CHEROKEE *     CLEAR     63  56  79 NW12G17   29.98S
DENISON *      CLEAR     63  59  88 W7        29.99R
LE MARS *      CLEAR     61  55  82 NW6       30.01R
ORANGE CITY *  CLEAR     61  55  82 NW10      30.00S
SHELDON *      CLEAR     61  55  82 NW9       29.98R
SIOUX CITY     CLEAR     62  56  80 NW7       30.02R
6HR MIN TEMP:  60; 6HR MAX TEMP:  70;

SPENCER        CLEAR     61  55  81 NW13      29.96R
6HR MIN TEMP:  59; 6HR MAX TEMP:  69;

STORM LAKE *   CLEAR     59  59 100 W9        29.98S
$$

IAZ055>058-069>071-079>083-090>094-271300-
   SOUTHWEST IOWA

CITY           SKY/WX    TMP DP  RH WIND       PRES   REMARKS
ATLANTIC *     CLEAR     66  63  88 NW9       29.99S
AUDUBON *      CLEAR     66  63  88 CALM      30.01R
CLARINDA *     CLEAR     66  66 100 N5        30.00R
COUNCIL BLFS * CLEAR     66  66 100 NW5       30.01S
CRESTON *      CLEAR     64  64 100 NW7       29.99R
HARLAN  *      CLEAR     63  61  94 CALM      30.04S
LAMONI         CLEAR     69  66  90 NW8       29.96R
6HR MIN TEMP:  66; 6HR MAX TEMP:  74;

RED OAK *      CLEAR     68  66  94 N6        30.00R
SHENANDOAH *   CLEAR     70  68  94 N10       30.00R
$$

IAZ047>049-059>061-072>074-084-271300-
   CENTRAL IOWA

CITY           SKY/WX    TMP DP  RH WIND       PRES   REMARKS
AMES           CLEAR     65  60  84 NW8       29.93R
6HR MIN TEMP:  63; 6HR MAX TEMP:  73;

ANKENY *       CLEAR     68  63  83 NW9       29.93R
CHARITON *     CLEAR     70  66  88 NW9       29.94R
DES MOINES     CLEAR     69  62  78 NW9       29.94R
6HR MIN TEMP:  68; 6HR MAX TEMP:  74;

GRINNELL*      CLEAR     66  63  88 NW6       29.91S
KNOXVILLE *    CLEAR     70  66  88 NW9       29.91R
MARSHALLTOWN   CLEAR     65  62  90 W6        29.90R
6HR MIN TEMP:  64; 6HR MAX TEMP:  70;

PELLA *        CLEAR     69  66  90 NW7       29.92R
PERRY *          N/A     64  61  88 NW5       29.96R
$$

IAZ004>006-015-016-023>025-035-036-271300-
   NORTH CENTRAL IOWA

CITY           SKY/WX    TMP DP  RH WIND       PRES   REMARKS
ALGONA *       CLEAR     61  59  94 W8        29.93R
CLARION *      CLEAR     63  61  94 W8        29.91S
ESTHERVILLE    CLEAR     62  55  77 NW13      29.93R
6HR MIN TEMP:  59; 6HR MAX TEMP:  67;

FORT DODGE *   CLEAR     63  57  82 W7        29.94S
MASON CITY     CLEAR     62  57  83 W8        29.90R
6HR MIN TEMP:  60; 6HR MAX TEMP:  69;

FOREST CITY *  CLEAR     64  55  72 NE12      29.90R
IOWA FALLS *     N/A     63  59  88 W6        29.92S
$$

IAZ007>011-017>019-026>030-037>042-050>054-066-271300-
   NORTHEAST IOWA

CITY           SKY/WX    TMP DP  RH WIND       PRES   REMARKS
CEDAR RAPIDS   SUNNY     68  64  87 NW10      29.86R
6HR MIN TEMP:  66; 6HR MAX TEMP:  70;

CHARLES CITY * CLEAR     64  59  82 W9        29.87S
CLINTON *      PTSUNNY   68  66  94 W7        29.84S VSB 1/4
DECORAH *      SUNNY     64  61  88 VRB6      29.82F
DUBUQUE        SUNNY     68  65  90 NW7       29.83R
6HR MIN TEMP:  66; 6HR MAX TEMP:  69;

MONTICELLO *   MOSUNNY   68  66  94 NW7       29.84R
OELWEIN *      SUNNY     66  63  88 W9        29.87S
WATERLOO       CLEAR     67  60  78 W7        29.86S
6HR MIN TEMP:  66; 6HR MAX TEMP:  70;

$$

IAZ064-065-067-068-078-271300-
   EAST CENTRAL IOWA

CITY           SKY/WX    TMP DP  RH WIND       PRES   REMARKS
DAVENPORT      FOG       67  66  97 W7        29.83S VSB<1/4
6HR MIN TEMP:  63; 6HR MAX TEMP:  68;

IOWA CITY      SUNNY     70  68  93 W8        29.87R
6HR MIN TEMP:  67; 6HR MAX TEMP:  71;

MT. PLEASANT * SUNNY     72  71  96 W5        29.87R FOG
MUSCATINE *    SUNNY     72  70  94 W8        29.85R FOG
QUAD CITIES    SUNNY     70  69  97 W6        29.83R FOG
6HR MIN TEMP:  66; 6HR MAX TEMP:  70;

$$

IAZ062-063-075>077-085>089-095>099-271300-
   SOUTHEAST IOWA

CITY           SKY/WX    TMP DP  RH WIND       PRES   REMARKS
BURLINGTON     SUNNY     72  71  97 W5        29.85R FOG
6HR MIN TEMP:  72; 6HR MAX TEMP:  74;

FAIRFIELD *    PTCLDY    70  68  94 W6        29.89R FOG
FORT MADISON * SUNNY     73  73 100 W5        29.87F FOG
KEOKUK *       MOSUNNY   73  73 100 NW5       29.86S FOG
OSKALOOSA *      N/A     69  69  98 NW7       29.91R FOG
CENTERVILLE *  PTCLDY    70  70 100 W6        29.94R
OTTUMWA        CLOUDY    71  70  96 NW9       29.90R FOG
6HR MIN TEMP:  69; 6HR MAX TEMP:  75;

WASHINGTON *   SUNNY     70  70 100 W8        29.88R FOG
$$

ABBREVIATIONS USED IN REMARKS
   TC - TEMPERATURES IN CELSIUS
  WCI - WIND CHILL INDEX
   HX - HEAT INDEX
  VSB - VISIBILITY
$$




USA.gov is the U.S. government's official web portal to all federal, state and local government web resources and services.